Flag for U.S.A. Weather past 2 weeks in Compton, California, U.S.A.

Now
52 °F

Passing clouds.


Feels Like: 52 °F
Forecast: 50 / 59 °F
Wind: 3 mph from Southeast

Location: Hawthorne Municipal Airport

Current Time: Mar 2, 2015 at 3:23:06 AM

Latest Report: Mar 2, 2015 at 2:53 AM


Visibility: 10 mi

Pressure: 29.90 "Hg

Humidity: 86%

Dew point: 48 °F

Location of ComptonLocation

Historic Weather in Compton — Graph

°F

Compton temperature yesterday

Maximum temperature yesterday: 64 °F (at 11:53 AM)
Minimum temperature yesterday: 52 °F (at 11:53 PM)
Average temperature yesterday: 57 °F

Past Weeks' High & Low Weather Summary

 TemperatureHumidityPressure
High76 °F (Feb 15, 11:53 AM)93% (Feb 23, 2:53 AM)30.24 "Hg (Feb 23, 2:53 AM)
Low48 °F (Feb 24, 4:53 AM)12% (Feb 24, 1:53 PM)29.75 "Hg (Feb 27, 11:53 PM)
Average61 °F69%29.98 "Hg
* Reported Feb 15 1:53 AM — Mar 2 1:53 AM, Compton, Weather by CustomWeather, © 2015

Note: Actual official high and low records may vary slightly from our data, if they occured in-between our weather recording intervals... More about our weather records

Advertising

Compton weather history for previous 24 hours

 ConditionsComfort  
Time TempWeatherWind HumidityBarometerVisibility
1:53 AM
Mon, Mar 2
52 °FPassing clouds.No wind86%29.91 "Hg10 mi
12:53 AM51 °FLight rain. Overcast.6 mph86%29.93 "Hg10 mi
11:53 PM
Sun, Mar 1
52 °FHeavy rain. Overcast.3 mph89%29.94 "Hg3 mi
11:04 PM53 °FHeavy rain. Mostly cloudy.3 mph86%29.95 "Hg2 mi
10:53 PM53 °FThunderstorms. Overcast.3 mph86%29.95 "Hg5 mi
9:53 PM54 °FLight rain. Overcast.3 mph83%29.95 "Hg10 mi
8:53 PM58 °FOvercast.5 mph70%29.94 "Hg10 mi
7:53 PM58 °FMostly cloudy.6 mph67%29.94 "Hg10 mi
6:53 PM58 °FOvercast.7 mph65%29.93 "Hg10 mi
5:53 PM59 °FMostly cloudy.8 mph60%29.92 "Hg10 mi
4:53 PM60 °FSunny.8 mph60%29.90 "Hg10 mi
3:53 PM61 °FPartly sunny.12 mph58%29.90 "Hg10 mi
2:53 PM62 °FPartly sunny.8 mph54%29.89 "Hg10 mi
1:53 PM62 °FScattered clouds.9 mph56%29.88 "Hg10 mi
12:53 PM62 °FScattered clouds.12 mph56%29.90 "Hg10 mi
11:53 AM64 °FPartly sunny.13 mph49%29.92 "Hg10 mi
10:53 AM61 °FPassing clouds.9 mph56%29.93 "Hg10 mi
9:53 AM58 °FPartly sunny.No wind65%29.95 "Hg10 mi
8:53 AM56 °FPartly sunny.3 mph72%29.95 "Hg10 mi
7:53 AM54 °FMostly cloudy.No wind77%29.94 "Hg10 mi
6:53 AM54 °FOvercast.No wind77%29.93 "Hg10 mi
5:53 AM54 °FMostly cloudy.No wind77%29.93 "Hg10 mi
4:53 AM53 °FPassing clouds.No wind83%29.91 "Hg10 mi
3:53 AM54 °FPassing clouds.No wind80%29.91 "Hg10 mi
Weather by CustomWeather, © 2015

See weather overviewHow to use our weather pages